This demonstration page uses our WeatherBlox Daily Observations layout. Learn more.

Left ArrowRight Arrow

38.20091, -84.87328

Hourly Observations for January 11, 2020

Temp ( °F °C ) Dew Point ( °F °C ) Humidity (%) Winds ( mph kmh ) Pressure ( in mb ) Visibility ( mi km ) Precip ( " mm )
12:53 am 00:53 Mostly Cloudy 62 16.7 53 11.7 73 73 S 14 22 29.98 1015 10 16 0.00 0.00
1:53 am 01:53 Mostly Cloudy 63 17.2 53 11.7 70 70 S 15 24 29.94 1014 10 16 0.00 0.00
2:53 am 02:53 Mostly Cloudy 64 17.8 53 11.7 68 68 S 16 26 29.91 1013 10 16 0.00 0.00
3:53 am 03:53 Cloudy 64 17.8 54 12.2 70 70 S 17 28 29.89 1012 10 16 0.00 0.00
4:53 am 04:53 Cloudy 63 17.2 55 12.8 76 76 SSE 12 19 29.86 1011 10 16 0.01 0.25
5:53 am 05:53 Cloudy 66 18.9 55 12.8 68 68 S 17 28 29.84 1010 10 16 0.00 0.00
6:53 am 06:53 Cloudy 66 18.9 56 13.3 70 70 S 18 30 29.82 1010 10 16 0.00 0.00
7:53 am 07:53 Mostly Cloudy 67 19.4 57 13.9 71 71 SSE 25 41 29.77 1008 10 16 0.00 0.00
8:53 am 08:53 Partly Cloudy 68 20 57 13.9 68 68 S 22 35 29.75 1008 10 16 0.00 0.00
9:53 am 09:53 Mostly Cloudy 70 21.1 58 14.4 66 66 S 26 43 29.75 1007 10 16 0.00 0.00
10:53 am 10:53 Cloudy 71 21.7 58 14.4 63 63 S 21 33 29.75 1008 10 16 0.00 0.00
11:53 am 11:53 Cloudy 72 22.2 58 14.4 61 61 S 25 41 29.75 1007 10 16 0.00 0.00
12:15 pm 12:15 Cloudy with Rain 63 17.2 59 15 87 87 W 14 22 29.78 1008 4 6 0.03 0.76
12:18 pm 12:18 Cloudy with Heavy Rain 63 17.2 60 15.6 90 90 W 17 28 29.77 1008 2 3 0.08 2.03
12:24 pm 12:24 Cloudy with Heavy Rain 63 17.2 60 15.6 90 90 W 16 26 29.77 1008 1 1 0.16 4.06
12:29 pm 12:29 Cloudy with Rain 63 17.2 60 15.6 90 90 W 16 26 29.77 1008 1 2 0.18 4.57
12:40 pm 12:40 Cloudy with Heavy Rain 62 16.7 60 15.6 93 93 W 14 22 29.79 1009 1 2 0.29 7.37
12:42 pm 12:42 Cloudy with Heavy Rain 62 16.7 60 15.6 93 93 W 16 26 29.78 1008 1 1 0.36 9.14
12:53 pm 12:53 Cloudy with Rain 62 16.7 60 15.6 93 93 WSW 9 15 29.77 1008 2 2 0.43 10.92
12:57 pm 12:57 Cloudy with Light Rain 62 16.7 60 15.6 93 93 WSW 8 13 29.77 1008 3 5 0.01 0.25
1:53 pm 13:53 Cloudy with Light Rain 62 16.7 60 15.6 93 93 SW 9 15 29.76 1008 10 16 0.04 1.02
2:53 pm 14:53 Cloudy with Light Rain 62 16.7 59 15 90 90 S 7 11 29.75 1007 10 16 0.01 0.25
3:53 pm 15:53 Cloudy with Light Rain 62 16.7 59 15 90 90 S 13 20 29.75 1008 7 11 0.05 1.27
4:53 pm 16:53 Cloudy with Rain 61 16.1 59 15 93 93 SSE 10 17 29.73 1007 3 5 0.17 4.32
5:53 pm 17:53 Cloudy with Light Rain 60 15.6 58 14.4 93 93 SE 15 24 29.62 1003 10 16 0.18 4.57
6:00 pm 18:00 Cloudy 60 15.6 58 14.4 93 93 SE 16 26 29.63 1004 10 16 0.00 0.00
6:30 pm 18:30 Mostly Cloudy 61 16.1 58 14.4 90 90 SSE 17 28 29.63 1003 10 16 0.00 0.00
6:53 pm 18:53 Cloudy 61 16.1 58 14.4 90 90 SSE 12 19 29.62 1003 10 16 0.00 0.00
7:37 pm 19:37 Cloudy 61 16.1 58 14.4 90 90 S 13 20 29.65 1004 10 16 0.00 0.00
7:53 pm 19:53 Cloudy 62 16.7 58 14.4 86 86 S 17 28 29.65 1004 10 16 0.00 0.00
8:53 pm 20:53 Cloudy 63 17.2 58 14.4 84 84 SSW 20 31 29.66 1004 10 16 0.00 0.00
9:06 pm 21:06 Cloudy with Light Rain 59 15 54 12.2 83 83 WSW 15 24 29.73 1007 3 4 0.07 1.78
9:13 pm 21:13 Cloudy with Light Rain 57 13.9 53 11.7 87 87 WSW 20 31 29.75 1007 10 16 0.07 1.78
9:53 pm 21:53 Cloudy 52 11.1 48 8.9 86 86 SW 17 28 29.78 1008 10 16 0.08 2.03
10:39 pm 22:39 Mostly Cloudy 50 10 46 7.8 86 86 SW 20 31 29.84 1010 10 16 0.00 0.00
10:53 pm 22:53 Cloudy 49 9.4 45 7.2 86 86 SW 22 35 29.84 1011 10 16 0.00 0.00
11:10 pm 23:10 Cloudy 49 9.4 44 6.7 83 83 WSW 18 30 29.90 1013 10 16 0.00 0.00
11:45 pm 23:45 Cloudy 47 8.3 43 6.1 86 86 WSW 16 26 29.96 1014 7 11 0.00 0.00
11:53 pm 23:53 Cloudy 47 8.3 43 6.1 86 86 WSW 15 24 29.93 1014 8 13 0.00 0.00

Powered by AerisWeather